[TLELIST] Archives

 

Current TLEs <07 JUN 2005>

June 7th 2005 PDT

HST 1 20580U 90037B 05156.87826604 .00000694 00000-0 41777-4 0 3524 2 20580 28.4687 342.4675 0004024 155.3347 204.7434 14.99737383628544 ISS 1 25544U 98067A 05158.39632353 .00018897 00000-0 14225-3 0 6417 2 25544 51.6456 311.0819 0004656 213.9087 236.5299 15.72566712374140 CHANDRA 1 25867U 99040B 05157.37500000 .00000000 00000-0 00000+0 0 7945 2 25867 57.0633 103.6412 5654831 299.4677 12.5777 0.37800392 1212 These 2-Line Elements (TLEs) ...Continue Reading

Current TLEs <26 MAY 2005>

May 26th 2005 PDT

HST 1 20580U 90037B 05142.90319376 .00000282 00000-0 92430-5 0 3421 2 20580 28.4676 73.5252 0002911 357.4257 2.6278 14.99719249626442 ISS 1 25544U 98067A 05143.98767361 .00016412 00000-0 12685-3 0 5355 2 25544 51.6463 24.8731 0005663 155.5693 43.6603 15.72054135371877 CHANDRA 1 25867U 99040B 05141.41666667 .00000000 00000-0 00000+0 0 7901 2 25867 56.8248 103.9565 5666700 299.7242 0.0256 0.37804323 1214 These 2-Line Elements (TLEs) ...Continue Reading

Current TLEs <23 MAY 2005>

May 23rd 2005 PDT

HST 1 20580U 90037B 05142.90319376 .00000282 00000-0 92430-5 0 3421 2 20580 28.4676 73.5252 0002911 357.4257 2.6278 14.99719249626442 ISS 1 25544U 98067A 05143.98767361 .00016412 00000-0 12685-3 0 5355 2 25544 51.6463 24.8731 0005663 155.5693 43.6603 15.72054135371877 CHANDRA 1 25867U 99040B 05141.41666667 .00000000 00000-0 00000+0 0 7901 2 25867 56.8248 103.9565 5666700 299.7242 0.0256 0.37804323 1214 These 2-Line Elements (TLEs) ...Continue Reading

Current TLEs <20 MAY 2005>

May 20th 2005 PDT

HST 1 20580U 90037B 05140.17470902 .00001219 00000-0 83411-4 0 3408 2 20580 28.4668 91.3055 0003332 331.9087 28.1320 14.99720004626035 ISS 1 25544U 98067A 05140.98621692 .00016682 00000-0 12937-3 0 5144 2 25544 51.6448 40.2384 0006100 144.7116 337.2226 15.71955882371403 CHANDRA 1 25867U 99040B 05138.79166667 .00000000 00000-0 00000+0 0 7891 2 25867 56.7891 104.0431 5666634 299.7340 2.6281 0.37799993 1218 These 2-Line Elements (TLEs) ...Continue Reading

Current TLEs <02 MAY 2005>

May 2nd 2005 PDT

HST 1 20580U 90037B 05122.53921690 .00000700 00000-0 42310-4 0 3286 2 20580 28.4670 206.2089 0003943 149.5529 210.5289 14.99690125623380 ISS 1 25544U 98067A 05122.92057701 .00013286 00000-0 10510-3 0 3827 2 25544 51.6444 132.6913 0008013 74.6388 355.8280 15.71694952368567 CHANDRA 1 25867U 99040B 05120.45833333 .00000000 00000-0 00000+0 0 7830 2 25867 56.5890 104.4497 5671940 299.9266 26.8383 0.37788049 1217 These 2-Line Elements (TLEs) ...Continue Reading

Current TLEs <29 APRIL 2005>

April 29th 2005 PDT

HST 1 20580U 90037B 05119.54448179 .00000640 00000-0 37591-4 0 3265 2 20580 28.4673 225.7219 0003770 119.3135 240.7828 14.99686730622931 ISS 1 25544U 98067A 05119.99718772 .00007117 00000-0 58719-4 0 3596 2 25544 51.6444 147.6458 0007924 64.9790 13.9690 15.71609714368105 CHANDRA 1 25867U 99040B 05117.62500000 .00000000 00000-0 00000+0 0 7826 2 25867 56.5608 104.4672 5674313 300.0387 1.0563 0.37795118 1214 These 2-Line Elements (TLEs) ...Continue Reading

Current TLEs <27 APRIL 2005>

April 27th 2005 PDT

HST 1 20580U 90037B 05116.54973792 .00000663 00000-0 39428-4 0 3240 2 20580 28.4676 245.2312 0003788 87.1705 272.9317 14.99684050622482 ISS 1 25544U 98067A 05117.33147571 .00007373 00000-0 60767-4 0 3382 2 25544 51.6435 161.2869 0007761 56.5085 50.4395 15.71568917367685 CHANDRA 1 25867U 99040B 05114.95833333 .00000000 00000-0 00000+0 0 7816 2 25867 56.5021 104.5334 5678802 300.0749 357.9663 0.37806005 1210 These 2-Line Elements (TLEs) ...Continue Reading

Current TLEs <24 APRIL 2005>

April 24th 2005 PDT

HST 1 20580U 90037B 05113.75463598 .00000726 00000-0 44401-4 0 3223 2 20580 28.4673 263.4408 0003608 56.0055 304.0876 14.99681580622067 ISS 1 25544U 98067A 05114.40649191 .00015223 00000-0 12089-3 0 3175 2 25544 51.6453 176.2471 0007804 46.6515 60.9917 15.71461359367224 CHANDRA 1 25867U 99040B 05112.33333333 .00000000 00000-0 00000+0 0 7800 2 25867 56.4572 104.6354 5678404 300.0640 0.5648 0.37804300 1211 These 2-Line Elements (TLEs) ...Continue Reading

Current TLEs <21 APRIL 2005>

April 21st 2005 PDT

HST 1 20580U 90037B 05110.89297735 .00000740 00000-0 45495-4 0 3201 2 20580 28.4673 282.0844 0003441 24.4920 335.5836 14.99678399621634 ISS 1 25544U 98067A 05111.96774306 .00016914 00000-0 13419-3 0 3008 2 25544 51.6454 188.7219 0007564 37.4934 304.5743 15.71387963366837 CHANDRA 1 25867U 99040B 05109.66666667 .00000000 00000-0 00000+0 0 7799 2 25867 56.4448 104.7141 5674765 300.0895 357.4978 0.37795414 1211 These 2-Line Elements (TLEs) ...Continue Reading

Current TLEs <19 APRIL 2005>

April 19th 2005 PDT

HST 1 20580U 90037B 05108.63026646 .00000910 00000-0 58982-4 0 3182 2 20580 28.4677 296.8250 0003507 358.4615 1.6013 14.99676293621297 ISS 1 25544U 98067A 05109.37128711 .00021305 00000-0 16830-3 0 2743 2 25544 51.6460 201.9979 0007157 30.2892 14.2009 15.71307586366436 CHANDRA 1 25867U 99040B 05107.04166667 .00000000 00000-0 00000+0 0 7783 2 25867 56.4426 104.7514 5673294 300.1640 0.0988 0.37791117 1214 These 2-Line Elements (TLEs) ...Continue Reading
  • This mailing list is a public mailing list - anyone may join or leave, at any time.
  • This mailing list is announce-only.

International Space Station (ISS) / Hubble Space Telescope (HST) / Chandra X-Ray Observatory Orbital Data via EMAIL

Privacy Policy:

Private list